"Pseudo-MPEC" for P20Ondo

Created 2019 Jun 15 19:09:54 UT using Find_Orb

Click here for an explanation of pseudo-MPECs

 
 Astrometry: 
     P20Ondo  C2019 05 21Fr1mNf#UJUQ*2Z!su_rG]27439[o!(AfD4nekAstrometryJ5F!sF52
     P20Ondo  C2019 05 21X5u,0Z$2q6I+I%x_Nygp?e^4P*^@P_9ct4o^IMJ@=M@R$%'XlQwXF52
     P20Ondo  C2019 05 21i1.sI($.BA\0juY=ETZMZY8Z:pLEH*5Ymb)u@kqaredacted;((QF52
     P20Ondo  C2019 05 30#aH;(OO]ch=#8iI`N8@u#clickJuHv\P$h-?605s9d0,MEpO+xA%F52
     P20Ondo  C2019 05 30MA\x+tS5RuCqeS,^FqnIWu)l2bDSArN$pEcDxRvMum8(TQO%yR\uF52
     P20Ondo  C2019 05 3059AG!eTv](T-'q+YJ',EOy()P1.)=jXR]yS^?-5ViidqaoPeQ706F52
     P20Ondo  C2019 05 31lc@#qI@;(Ly[%7fW0pu[1Devu`UherelSr20i6+_W8S7).W0egZ:F51
     P20Ondo  C2019 05 31k8hghD'C74p#E99*forx1;jeRts0*8Q,T/DvP2@10WF[E?NOr`jbF51
     P20Ondo  C2019 05 31Kw6xatj88vFG@BQ-ccqt/Q/Tp^]BD'_I$u!?pk2.gX0aU;Hr$?lgF51
     P20Ondo HC2019 06 04Juu:2=^:arRb8H-J0N(t5768/n1V6\XeWLxN08QK0)3+tL;H/j7F691
     P20Ondo HC2019 06 04O0t;fdwxP.JN\Z@g_*JL-/FYKnBo+iu[yIve4M=d[glq!29`c2#s691
     P20Ondo HC2019 06 04X7xLYmWHBl!kB@Yo]w*JiVK!o1r2wO_Uf]'F*9HL+$rNDQw\O\`r691
     P20Ondo  C2019 06 0782tawFsuuY*pfb!explanation%d'dhSlg+DI4/,ruZ3MZ,0?,LjF51
     P20Ondo  C2019 06 07LhEQRLuZbbe,eS2t_^JtqwTXSQ9jAfXf=em3`Mvl(gEo;^-eX%g7F51
     P20Ondo  C2019 06 08.42583 21 32 44.49 +19 22 19.7    ~691q 23.2 GVNEOCPI52
     P20Ondo  C2019 06 08.43469 21 32 44.48 +19 22 24.0    ~691q 22.1 GVNEOCPI52
     P20Ondo  C2019 06 08.44551 21 32 44.48 +19 22 28.8    ~691q 22.1 GVNEOCPI52
     P20Ondo  C2019 06 08.45596 21 32 44.48 +19 22 33.1    ~691q 22.0 GVNEOCPI52

Station data:
(691) Steward Observatory, Kitt Peak - Spacewatch  (N31.962174 W111.600327)
   US/Arizona.  Observer J. V. Scotti. 0.9-m f/3 reflector + CCD.
(F51) Pan-STARRS 1, Haleakala  (N20.707235 W156.255910)  US/Hawaii.
   Observers N. Primak, A. Schultz, S. Watters, J. Thiel, T. Goggia. Measurer
   PS1 Science Consortium. 1.8-m Ritchey-Chrétien + CCD.
(F52) Pan-STARRS 2, Haleakala  (N20.707384 W156.255910)  US/Hawaii. 1.8-m
   Ritchey-Chrétien + CCD.
(I52) Steward Observatory, Mt. Lemmon Station  (N32.442547 W110.788920)
   US/Arizona.  Observers T. A. Pruyne, B. M. Africano, E. J. Christensen, G.
   A. Farneth, D. C. Fuls, A. R. Gibbs, A. D. Grauer, H. Groeller, J. A.
   Johnson, R. A. Kowalski, S. M. Larson, G. J. Leonard, R. L. Seaman, F. C.
   Shelly. 1.0-m reflector + CCD.

Orbital elements:  P20Ondo
   Perihelion 2020 Nov 29.391719 +/- 78.1 TT =  9:24:04 (JD 2459182.891719)
Epoch 2019 Jun  8.0 TT = JDT 2458642.5   Ju: 0.0371           AutoNEOCP
M 315.20388724 +/- 6                (J2000 ecliptic)
n   0.08289563 +/- 0.000408         Peri.  120.17942 +/- 7
a   5.20932700 +/- 0.0171           Node   250.38052 +/- 0.07
e   0.0362207 +/- 0.00243           Incl.   31.42493 +/- 0.012
P  11.89                   H 14.3   G  0.15   U  7.6  
q 5.02064134 +/- 0.0217    Q 5.39801266 +/- 0.0209
From 18 observations 2019 May 21-June 8; mean residual 0".19
Residuals in arcseconds: 
190521 F52  .25-  .03-    190531 F51  .01-  .18-    190607 F51  .13-  .10+    
190521 F52  .22+  .26+    190531 F51  .04+  .13-    190607 F51  .02-  .07+    
190521 F52  .03+  .13-    190531 F51  .02-  .20-    190608 I52  .09-  .59-    
190530 F52  .10-  .02-    190604 691  .03-  .43+    190608 I52  .09-  .08-    
190530 F52  .08+  .09-    190604 691  .05+  .11+    190608 I52  .09+  .09+    
190530 F52  .02+  .13-    190604 691  .00   .49+    190608 I52  .26+  .08-    

Ephemerides (geocentric):
Date (UTC) HH   RA              Dec         delta   r     elong  mag " sig PA
---- -- -- --  -------------   -----------  ------ ------ -----  --- ---- ---
2019 06 15 19  21 32 20.685   +20 12 56.22  4.6784 5.0774 107.5 21.9 .714  99
2019 06 15 20  21 32 20.437   +20 13 12.72  4.6779 5.0774 107.6 21.9 .719  99
2019 06 15 21  21 32 20.187   +20 13 29.22  4.6774 5.0774 107.6 21.9 .723  99
2019 06 15 22  21 32 19.935   +20 13 45.70  4.6769 5.0774 107.6 21.9 .728  99
2019 06 15 23  21 32 19.683   +20 14 02.18  4.6764 5.0774 107.6 21.9 .733  99
2019 06 16 00  21 32 19.429   +20 14 18.65  4.6759 5.0774 107.7 21.9 .738  99
2019 06 16 01  21 32 19.174   +20 14 35.11  4.6754 5.0773 107.7 21.9 .742  99
2019 06 16 02  21 32 18.917   +20 14 51.57  4.6749 5.0773 107.7 21.9 .747  99
2019 06 16 03  21 32 18.659   +20 15 08.01  4.6744 5.0773 107.8 21.9 .752  99
2019 06 16 04  21 32 18.400   +20 15 24.45  4.6739 5.0773 107.8 21.9 .756  99
2019 06 16 05  21 32 18.140   +20 15 40.88  4.6734 5.0773 107.8 21.9 .761  99
2019 06 16 06  21 32 17.879   +20 15 57.30  4.6729 5.0773 107.9 21.9 .766  99
2019 06 16 07  21 32 17.616   +20 16 13.72  4.6724 5.0773 107.9 21.9 .771  99
2019 06 16 08  21 32 17.352   +20 16 30.12  4.6719 5.0773 107.9 21.9 .776  99
2019 06 16 09  21 32 17.086   +20 16 46.52  4.6714 5.0773 108.0 21.9 .780  99
2019 06 16 10  21 32 16.819   +20 17 02.91  4.6709 5.0773 108.0 21.9 .785  99
2019 06 16 11  21 32 16.551   +20 17 19.29  4.6704 5.0773 108.0 21.9 .790  99
2019 06 16 12  21 32 16.282   +20 17 35.66  4.6699 5.0773 108.0 21.9 .795  99
2019 06 16 13  21 32 16.012   +20 17 52.03  4.6694 5.0772 108.1 21.9 .800  99
2019 06 16 14  21 32 15.740   +20 18 08.38  4.6689 5.0772 108.1 21.9 .805  99
2019 06 16 15  21 32 15.467   +20 18 24.73  4.6684 5.0772 108.1 21.9 .810  99
2019 06 16 16  21 32 15.192   +20 18 41.07  4.6679 5.0772 108.2 21.9 .815  99
2019 06 16 17  21 32 14.917   +20 18 57.40  4.6674 5.0772 108.2 21.9 .820  99
2019 06 16 18  21 32 14.640   +20 19 13.73  4.6669 5.0772 108.2 21.9 .825  99
2019 06 16 19  21 32 14.361   +20 19 30.04  4.6664 5.0772 108.3 21.9 .830  99
2019 06 16 20  21 32 14.082   +20 19 46.35  4.6659 5.0772 108.3 21.9 .835  99
2019 06 16 21  21 32 13.801   +20 20 02.65  4.6654 5.0772 108.3 21.9 .840  99
2019 06 16 22  21 32 13.519   +20 20 18.94  4.6649 5.0772 108.4 21.9 .845  99
2019 06 16 23  21 32 13.235   +20 20 35.22  4.6644 5.0772 108.4 21.9 .850  99
2019 06 17 00  21 32 12.951   +20 20 51.49  4.6639 5.0772 108.4 21.9 .855  99
2019 06 17 01  21 32 12.665   +20 21 07.76  4.6634 5.0771 108.4 21.9 .860  99
2019 06 17 02  21 32 12.378   +20 21 24.02  4.6629 5.0771 108.5 21.9 .865  99
2019 06 17 03  21 32 12.089   +20 21 40.27  4.6624 5.0771 108.5 21.9 .870  99
2019 06 17 04  21 32 11.799   +20 21 56.51  4.6619 5.0771 108.5 21.9 .875  99
2019 06 17 05  21 32 11.508   +20 22 12.74  4.6614 5.0771 108.6 21.9 .880  98
2019 06 17 06  21 32 11.216   +20 22 28.96  4.6609 5.0771 108.6 21.9 .885  98
2019 06 17 07  21 32 10.922   +20 22 45.18  4.6604 5.0771 108.6 21.9 .890  98
2019 06 17 08  21 32 10.627   +20 23 01.39  4.6599 5.0771 108.7 21.9 .895  98
2019 06 17 09  21 32 10.331   +20 23 17.59  4.6594 5.0771 108.7 21.9 .901  98
2019 06 17 10  21 32 10.034   +20 23 33.78  4.6589 5.0771 108.7 21.9 .906  98
2019 06 17 11  21 32 09.735   +20 23 49.96  4.6584 5.0771 108.8 21.9 .911  98
2019 06 17 12  21 32 09.435   +20 24 06.13  4.6579 5.0771 108.8 21.9 .916  98
2019 06 17 13  21 32 09.134   +20 24 22.30  4.6574 5.0770 108.8 21.9 .922  98
2019 06 17 14  21 32 08.831   +20 24 38.46  4.6569 5.0770 108.9 21.9 .927  98
2019 06 17 15  21 32 08.527   +20 24 54.60  4.6564 5.0770 108.9 21.8 .932  98
2019 06 17 16  21 32 08.222   +20 25 10.74  4.6559 5.0770 108.9 21.8 .937  98
2019 06 17 17  21 32 07.916   +20 25 26.88  4.6554 5.0770 108.9 21.8 .943  98
2019 06 17 18  21 32 07.608   +20 25 43.00  4.6549 5.0770 109.0 21.8 .948  98